Weather History for Black River Falls, WI

Change the Weather History Date:

Thursday, December 5, 2013

  Actual Average (KLSE) Record (KLSE)
Temperature  
Mean Temperature 16 °F 25 °F  
Max Temperature 28 °F 33 °F 67 °F (1998)
Min Temperature 5 °F 18 °F -5 °F (1880)
Degree Days  
Heating Degree Days 48 40  
Month to date heating degree days 194  
Since 1 July heating degree days 1694  
Cooling Degree Days 0 0  
Month to date cooling degree days 0  
Year to date cooling degree days 782  
Moisture  
Dew Point 5 °F    
Average Humidity 68    
Maximum Humidity 78    
Minimum Humidity 56    
Precipitation  
Precipitation 0.00 in 0.05 in 1.40 in (1879)
Month to date precipitation 0.27  
Year to date precipitation 31.97  
Snow  
Snow 0.00 in 0.40 in 3.80 in (1925)
Month to date snowfall 1.8  
Since 1 July snowfall 6.1  
Snow Depth -    
Sea Level Pressure  
Sea Level Pressure 30.00 in    
Wind  
Wind Speed 15 mph (West)    
Max Wind Speed 21 mph    
Max Gust Speed 30 mph    
Visibility 10 miles    
Events Snow    
T = Trace of Precipitation, MM = Missing Value Source: NWS Daily Summary

Daily Weather History Graph

Daily Weather History Graph

Search for Another Location

Airport:

Trip Planner

Search our weather history database for the weather conditions in past years. The results will help you decide how hot, cold, wet, or windy it might be!

Date:

Astronomy

Dec. 05, 2013 Rise Set
Actual Time 7:23 AM CST 4:24 PM CST
Civil Twilight 6:50 AM CST 4:57 PM CST
Nautical Twilight 6:14 AM CST 5:33 PM CST
Astronomical Twilight 5:39 AM CST 6:08 PM CST
Moon 9:40 AM CST (12/5) 7:49 PM CST (12/5)
Length of Visible Light 10h 06m
Length of Day
9h 01m
Waxing Crescent, 11% of the Moon is Illuminated
Dec 5
Waxing Crescent
Dec 9
First Quarter
Dec 17
Full
Dec 25
Last Quarter
Jan 1
New

Hourly Weather History & Observations

Time (CST) Temp. Windchill Dew Point Humidity Pressure Visibility Wind Dir Wind Speed Gust Speed Precip Events Conditions
12:15 AM 28.2 °F 15.9 °F 21.9 °F 77% 29.63 in 10.0 mi WSW 17.3 mph 23.0 mph N/A   Overcast
12:35 AM 26.6 °F 13.1 °F 19.9 °F 76% 29.65 in 10.0 mi West 19.6 mph 28.8 mph N/A   Overcast
1:00 AM 25.5 °F 11.3 °F 19.0 °F 76% 29.66 in 10.0 mi West 20.7 mph 26.5 mph N/A   Overcast
1:15 AM 24.4 °F 11.5 °F 18.5 °F 78% 29.67 in 10.0 mi West 16.1 mph 25.3 mph N/A   Overcast
1:35 AM 23.4 °F 9.6 °F 16.5 °F 75% 29.69 in 10.0 mi West 17.3 mph 29.9 mph N/A   Overcast
1:55 AM 22.5 °F 12.4 °F 15.8 °F 76% 29.69 in 10.0 mi West 9.2 mph 25.3 mph N/A   Overcast
2:15 AM 21.7 °F 9.0 °F 15.1 °F 76% 29.69 in 10.0 mi West 13.8 mph 20.7 mph N/A   Overcast
2:35 AM 21.0 °F 6.2 °F 14.7 °F 77% 29.69 in 10.0 mi West 18.4 mph 23.0 mph N/A   Overcast
2:55 AM 19.9 °F 4.8 °F 12.6 °F 73% 29.73 in 10.0 mi West 18.4 mph 25.3 mph N/A   Overcast
3:15 AM 19.0 °F 5.6 °F 11.8 °F 74% 29.74 in 10.0 mi West 13.8 mph 28.8 mph N/A Snow Light Snow
3:35 AM 18.5 °F 4.9 °F 10.6 °F 71% 29.76 in 10.0 mi WSW 13.8 mph 24.2 mph N/A   Overcast
3:55 AM 17.6 °F 3.2 °F 10.0 °F 72% 29.77 in 10.0 mi WSW 15.0 mph 20.7 mph N/A   Overcast
4:15 AM 16.7 °F 1.0 °F 8.6 °F 70% 29.79 in 10.0 mi West 17.3 mph 29.9 mph N/A   Mostly Cloudy
4:40 AM 15.8 °F 2.1 °F 8.2 °F 72% 29.80 in 10.0 mi West 12.7 mph 26.5 mph N/A   Mostly Cloudy
4:55 AM 15.8 °F 0.9 °F 8.1 °F 72% 29.81 in 10.0 mi West 15.0 mph 23.0 mph N/A   Mostly Cloudy
5:15 AM 15.4 °F 2.3 °F 7.7 °F 71% 29.83 in 10.0 mi West 11.5 mph 19.6 mph N/A   Overcast
5:35 AM 14.7 °F 2.9 °F 6.8 °F 71% 29.84 in 10.0 mi West 9.2 mph 20.7 mph N/A   Mostly Cloudy
5:55 AM 14.0 °F -1.4 °F 5.9 °F 70% 29.86 in 10.0 mi West 15.0 mph 24.2 mph N/A   Scattered Clouds
6:15 AM 13.6 °F -3.9 °F 5.4 °F 70% 29.87 in 10.0 mi West 19.6 mph 26.5 mph N/A   Clear
6:35 AM 13.1 °F -1.4 °F 5.0 °F 70% 29.89 in 10.0 mi WSW 12.7 mph 18.4 mph N/A   Scattered Clouds
6:55 AM 12.6 °F -3.3 °F 4.6 °F 71% 29.90 in 10.0 mi WSW 15.0 mph 23.0 mph N/A   Scattered Clouds
7:15 AM 12.0 °F -5.1 °F 4.1 °F 71% 29.91 in 10.0 mi West 17.3 mph 24.2 mph N/A   Scattered Clouds
7:35 AM 11.8 °F -1.5 °F 3.7 °F 70% 29.91 in 10.0 mi West 10.4 mph 19.6 mph N/A   Scattered Clouds
7:55 AM 11.5 °F -5.8 °F 3.6 °F 71% 29.92 in 10.0 mi West 17.3 mph 23.0 mph N/A   Scattered Clouds
8:15 AM 11.8 °F -4.8 °F 3.2 °F 68% 29.93 in 10.0 mi West 16.1 mph 25.3 mph N/A   Scattered Clouds
8:35 AM 12.6 °F -3.3 °F 3.9 °F 68% 29.94 in 10.0 mi West 15.0 mph 26.5 mph N/A   Scattered Clouds
8:55 AM 12.0 °F -3.4 °F 3.4 °F 68% 29.96 in 10.0 mi WSW 13.8 mph 20.7 mph N/A   Scattered Clouds
9:15 AM 12.9 °F -0.9 °F 3.9 °F 67% 29.97 in 10.0 mi West 11.5 mph 18.4 mph N/A   Mostly Cloudy
9:35 AM 12.9 °F -3.4 °F 3.9 °F 67% 29.98 in 10.0 mi West 16.1 mph 21.9 mph N/A   Overcast
9:55 AM 13.3 °F -2.4 °F 3.6 °F 65% 30.00 in 10.0 mi West 15.0 mph 24.2 mph N/A   Mostly Cloudy
10:15 AM 13.6 °F -3.0 °F 3.6 °F 64% 30.01 in 10.0 mi West 17.3 mph 25.3 mph N/A   Mostly Cloudy
10:35 AM 14.5 °F -0.7 °F 3.7 °F 62% 30.01 in 10.0 mi West 15.0 mph 20.7 mph N/A   Scattered Clouds
10:55 AM 15.6 °F -1.8 °F 4.3 °F 61% 30.02 in 10.0 mi West 20.7 mph 25.3 mph N/A   Scattered Clouds
11:15 AM 15.3 °F -0.9 °F 4.1 °F 61% 30.02 in 10.0 mi West 17.3 mph 26.5 mph N/A   Scattered Clouds
11:35 AM 15.3 °F 0.2 °F 3.6 °F 60% 30.01 in 10.0 mi West 15.0 mph 25.3 mph N/A   Scattered Clouds
11:55 AM 15.8 °F 0.9 °F 3.9 °F 60% 30.01 in 10.0 mi WSW 15.0 mph 24.2 mph N/A   Scattered Clouds
12:15 PM 16.3 °F 2.1 °F 4.5 °F 60% 30.02 in 10.0 mi WSW 13.8 mph - N/A   Scattered Clouds
12:35 PM 16.7 °F 1.5 °F 4.1 °F 58% 30.02 in 10.0 mi West 16.1 mph 21.9 mph N/A   Scattered Clouds
12:55 PM 16.7 °F 2.6 °F 4.6 °F 59% 30.03 in 10.0 mi West 13.8 mph 21.9 mph N/A   Scattered Clouds
1:15 PM 17.1 °F 2.5 °F 4.3 °F 57% 30.04 in 10.0 mi West 15.0 mph 23.0 mph N/A   Clear
1:35 PM 16.7 °F 1.0 °F 3.9 °F 57% 30.04 in 10.0 mi West 17.3 mph 24.2 mph N/A   Clear
1:55 PM 17.2 °F 2.2 °F 3.7 °F 56% 30.05 in 10.0 mi West 16.1 mph 25.3 mph N/A   Scattered Clouds
2:15 PM 17.1 °F 2.5 °F 3.7 °F 56% 30.05 in 10.0 mi West 15.0 mph 21.9 mph N/A   Clear
2:35 PM 16.7 °F 1.5 °F 3.7 °F 57% 30.05 in 10.0 mi West 16.1 mph 20.7 mph N/A   Clear
2:55 PM 16.0 °F 2.3 °F 3.6 °F 58% 30.06 in 10.0 mi WSW 12.7 mph 19.6 mph N/A   Scattered Clouds
3:15 PM 15.4 °F 2.3 °F 3.4 °F 59% 30.06 in 10.0 mi WSW 11.5 mph - N/A   Clear
3:35 PM 14.5 °F 3.6 °F 3.2 °F 61% 30.08 in 10.0 mi West 8.1 mph 16.1 mph N/A   Scattered Clouds
3:55 PM 14.0 °F -0.2 °F 3.2 °F 62% 30.08 in 10.0 mi West 12.7 mph 17.3 mph N/A   Scattered Clouds
4:15 PM 13.3 °F -0.5 °F 3.0 °F 64% 30.08 in 10.0 mi WNW 11.5 mph 17.3 mph N/A   Clear
4:35 PM 12.7 °F -3.6 °F 3.0 °F 65% 30.09 in 10.0 mi West 16.1 mph 19.6 mph N/A   Clear
4:55 PM 12.2 °F -1.8 °F 2.7 °F 66% 30.10 in 10.0 mi West 11.5 mph 17.3 mph N/A   Clear
5:15 PM 11.7 °F -3.2 °F 2.5 °F 67% 30.11 in 10.0 mi West 12.7 mph 18.4 mph N/A   Scattered Clouds
5:35 PM 11.1 °F -5.1 °F 2.3 °F 68% 30.13 in 10.0 mi West 15.0 mph - N/A   Scattered Clouds
5:55 PM 10.8 °F -6.2 °F 1.9 °F 68% 30.15 in 10.0 mi West 16.1 mph 19.6 mph N/A   Scattered Clouds
6:15 PM 10.4 °F -4.8 °F 1.6 °F 68% 30.17 in 10.0 mi West 12.7 mph - N/A   Scattered Clouds
6:35 PM 10.2 °F -1.7 °F 1.9 °F 69% 30.19 in 10.0 mi WSW 8.1 mph - N/A   Scattered Clouds
6:55 PM 10.0 °F -2.9 °F 1.4 °F 68% 30.21 in 10.0 mi West 9.2 mph 19.6 mph N/A   Mostly Cloudy
7:15 PM 9.3 °F -0.5 °F 1.4 °F 70% 30.21 in 10.0 mi West 5.8 mph - N/A   Mostly Cloudy
7:35 PM 9.3 °F -5.4 °F 0.7 °F 68% 30.23 in 10.0 mi West 11.5 mph 17.3 mph N/A   Overcast
7:55 PM 8.6 °F -4.7 °F 0.5 °F 70% 30.23 in 10.0 mi West 9.2 mph - N/A   Scattered Clouds
8:15 PM 8.4 °F -3.9 °F 0.9 °F 71% 30.24 in 10.0 mi West 8.1 mph - N/A   Clear
8:35 PM 8.1 °F 1.4 °F 0.9 °F 72% 30.24 in 10.0 mi West 3.5 mph - N/A   Scattered Clouds
8:55 PM 7.7 °F -6.6 °F 1.0 °F 74% 30.24 in 10.0 mi West 10.4 mph - N/A   Mostly Cloudy
9:15 PM 7.7 °F -9.5 °F 0.1 °F 71% 30.25 in 10.0 mi West 15.0 mph 20.7 mph N/A   Scattered Clouds
9:35 PM 7.3 °F -7.9 °F -0.2 °F 71% 30.24 in 10.0 mi West 11.5 mph 19.6 mph N/A   Clear
9:55 PM 6.8 °F -8.6 °F -0.4 °F 72% 30.25 in 10.0 mi West 11.5 mph 16.1 mph N/A   Clear
10:15 PM 6.3 °F -5.4 °F -0.8 °F 73% 30.25 in 10.0 mi West 6.9 mph - N/A   Clear
10:35 PM 5.9 °F -8.0 °F -0.9 °F 73% 30.25 in 10.0 mi West 9.2 mph - N/A   Clear
10:55 PM 5.9 °F -5.8 °F -0.9 °F 73% 30.26 in 10.0 mi West 6.9 mph - N/A   Clear
11:15 PM 5.9 °F -5.8 °F -1.3 °F 72% 30.28 in 10.0 mi WSW 6.9 mph - N/A   Clear
11:35 PM 5.7 °F -7.2 °F -1.3 °F 73% 30.29 in 10.0 mi West 8.1 mph - N/A   Clear
11:55 PM 5.5 °F -6.3 °F -1.3 °F 73% 30.30 in 10.0 mi West 6.9 mph - N/A   Clear